Weather History for Flint, MI

Change the Weather History Date:

Tuesday, October 25, 2011

  Actual Average Record
Temperature  
Mean Temperature 48 °F 46 °F  
Max Temperature 58 °F 56 °F 81 °F (1963)
Min Temperature 38 °F 37 °F 20 °F (1960)
Degree Days  
Heating Degree Days 17 19  
Month to date heating degree days 268 369  
Since 1 July heating degree days 435 579  
Cooling Degree Days 0 0  
Month to date cooling degree days 3 2  
Year to date cooling degree days 819 528  
Growing Degree Days 0 (Base 50)    
Moisture  
Dew Point 42 °F    
Average Humidity 75    
Maximum Humidity 92    
Minimum Humidity 57    
Precipitation  
Precipitation 0.10 in 0.07 in 0.71 in (1939)
Month to date precipitation 2.45 2.01  
Year to date precipitation 35.99 26.32  
Snow  
Snow 0.00 in 0.00 in T in (1988)
Month to date snowfall 0.0 0.3  
Since 1 July snowfall 0.0 0.3  
Since 1 September snowfall 0.0 0.3  
Snow Depth 0.00 in    
Sea Level Pressure  
Sea Level Pressure 30.03 in    
Wind  
Wind Speed 6 mph (ESE)    
Max Wind Speed 18 mph    
Max Gust Speed 20 mph    
Visibility 10 miles    
Events Rain    
T = Trace of Precipitation, MM = Missing Value Source: NWS Daily Summary

Daily Weather History Graph

Daily Weather History Graph

Search for Another Location

Airport:

Trip Planner

Search our weather history database for the weather conditions in past years. The results will help you decide how hot, cold, wet, or windy it might be!

Date:

Astronomy

Oct. 25, 2011 Rise Set
Actual Time 8:00 AM EDT 6:37 PM EDT
Civil Twilight 7:31 AM EDT 7:06 PM EDT
Nautical Twilight 6:58 AM EDT 7:39 PM EDT
Astronomical Twilight 6:25 AM EDT 8:12 PM EDT
Moon 6:30 AM EDT 5:38 PM EDT
Length of Visible Light 11h 35m
Length of Day
10h 36m
Waning Crescent, 2% of the Moon is Illuminated
Oct 25
Waning Crescent
Oct 26
New
Nov 2
First Quarter
Nov 10
Full
Nov 18
Last Quarter

Hourly Weather History & Observations

Time (EDT) Temp. Windchill Dew Point Humidity Pressure Visibility Wind Dir Wind Speed Gust Speed Precip Events Conditions
12:53 AM 37.9 °F - 35.1 °F 89% 30.11 in 10.0 mi Calm Calm - N/A   Clear
1:53 AM 42.1 °F 39.2 °F 37.0 °F 82% 30.12 in 10.0 mi WSW 4.6 mph - N/A   Clear
2:53 AM 42.8 °F 40.1 °F 37.4 °F 81% 30.13 in 10.0 mi WSW 4.6 mph - N/A   Clear
3:53 AM 44.1 °F 40.8 °F 39.0 °F 82% 30.14 in 10.0 mi WSW 5.8 mph - N/A   Scattered Clouds
4:53 AM 45.0 °F 43.5 °F 39.0 °F 80% 30.14 in 10.0 mi WSW 3.5 mph - N/A   Overcast
5:53 AM 45.0 °F - 37.9 °F 76% 30.14 in 10.0 mi Calm Calm - N/A   Mostly Cloudy
6:53 AM 37.9 °F - 35.1 °F 89% 30.15 in 10.0 mi Calm Calm - N/A   Scattered Clouds
7:53 AM 42.1 °F - 37.9 °F 85% 30.15 in 10.0 mi Calm Calm - N/A   Overcast
8:53 AM 44.1 °F - 41.0 °F 89% 30.16 in 9.0 mi Calm Calm - 0.02 in Rain Light Rain
9:53 AM 46.0 °F 43.1 °F 42.1 °F 86% 30.15 in 10.0 mi East 5.8 mph - 0.03 in   Overcast
10:53 AM 46.9 °F - 44.1 °F 90% 30.15 in 10.0 mi Calm Calm - 0.00 in Rain Light Rain
11:53 AM 48.9 °F - 44.1 °F 83% 30.14 in 10.0 mi East 6.9 mph - 0.00 in   Overcast
12:53 PM 50.0 °F - 44.1 °F 80% 30.11 in 10.0 mi ESE 9.2 mph - N/A   Overcast
1:53 PM 52.0 °F - 46.0 °F 80% 30.03 in 10.0 mi SE 10.4 mph - 0.00 in   Overcast
2:53 PM 55.9 °F - 45.0 °F 67% 29.97 in 10.0 mi SE 11.5 mph - N/A   Mostly Cloudy
3:53 PM 57.9 °F - 42.1 °F 56% 29.94 in 10.0 mi ESE 10.4 mph 19.6 mph N/A   Partly Cloudy
4:53 PM 55.9 °F - 44.1 °F 64% 29.91 in 10.0 mi East 11.5 mph - N/A   Mostly Cloudy
5:53 PM 53.1 °F - 45.0 °F 74% 29.90 in 10.0 mi East 13.8 mph - N/A   Scattered Clouds
6:53 PM 51.1 °F - 44.1 °F 77% 29.91 in 10.0 mi East 11.5 mph - N/A   Overcast
7:53 PM 48.9 °F - 45.0 °F 86% 29.94 in 9.0 mi ENE 11.5 mph - 0.05 in Rain Light Rain
8:53 PM 48.2 °F - 44.6 °F 87% 29.88 in 10.0 mi East 10.4 mph 17.3 mph N/A   Overcast
9:53 PM 48.9 °F - 45.0 °F 86% 29.85 in 10.0 mi ESE 6.9 mph - 0.00 in   Overcast
10:53 PM 51.1 °F - 46.0 °F 83% 29.82 in 10.0 mi ESE 4.6 mph - 0.00 in   Overcast
11:53 PM 52.0 °F - 46.9 °F 83% 29.80 in 10.0 mi SE 6.9 mph - N/A   Overcast